NKS9910 KLGA-KCLT

Flight info

Callsign NKS9910
Flight time 1h 16m
Altitude 38000
Route DCT BIGGY Q75 GVE DCT AIROW CHSLY6
Aircraft A320/M-SDE1E2E3FGHIJ2J3J4J5M1RWXYZ/LB1D1

Departure

Time 2026-05-04 19:59
Airport LaGuardia Airport (KLGA)

Arrival

Time 2026-05-04 21:15
Airport Charlotte Douglas International Airport (KCLT)
Time Latitude Longitude Altitude Speed Heading
2026-05-04 19:40 40.77505 -73.86948 37 ft 0 kts 135°
2026-05-04 19:50 40.77514 -73.86960 36 ft 2 kts 135°
2026-05-04 19:51 40.77528 -73.86978 36 ft 3 kts 135°
2026-05-04 19:51 40.77542 -73.86997 36 ft 3 kts 135°
2026-05-04 19:51 40.77553 -73.87012 36 ft 1 kts 114°
2026-05-04 19:51 40.77553 -73.87015 36 ft 0 kts 105°
2026-05-04 19:54 40.77552 -73.87009 36 ft 3 kts 105°
2026-05-04 19:54 40.77568 -73.86962 36 ft 9 kts 38°
2026-05-04 19:54 40.77585 -73.86877 36 ft 12 kts 117°
2026-05-04 19:54 40.77526 -73.86765 36 ft 18 kts 128°
2026-05-04 19:55 40.77443 -73.86612 36 ft 22 kts 124°
2026-05-04 19:55 40.77363 -73.86437 36 ft 23 kts 121°
2026-05-04 19:55 40.77273 -73.86250 36 ft 25 kts 122°
2026-05-04 19:55 40.77177 -73.86050 36 ft 23 kts 121°
2026-05-04 19:56 40.77146 -73.85948 36 ft 9 kts 63°
2026-05-04 19:56 40.77175 -73.85894 36 ft 6 kts 95°
2026-05-04 19:56 40.77155 -73.85838 36 ft 8 kts 117°
2026-05-04 19:56 40.77155 -73.85789 36 ft 6 kts 52°
2026-05-04 19:57 40.77175 -73.85758 36 ft 7 kts 50°
2026-05-04 19:57 40.77216 -73.85733 36 ft 6 kts 326°
2026-05-04 19:57 40.77228 -73.85754 36 ft 0 kts 302°
2026-05-04 19:57 40.77229 -73.85756 36 ft 0 kts 302°
2026-05-04 19:58 40.77278 -73.85860 36 ft 34 kts 302°
2026-05-04 19:58 40.77552 -73.86432 37 ft 113 kts 302°
2026-05-04 19:59 40.78086 -73.87554 101 ft 165 kts 302°
2026-05-04 19:59 40.78679 -73.88815 901 ft 160 kts 301°
2026-05-04 19:59 40.79254 -73.90132 1350 ft 175 kts 299°
2026-05-04 19:59 40.79869 -73.91623 1652 ft 193 kts 297°
2026-05-04 20:00 40.80296 -73.93347 2065 ft 206 kts 276°
2026-05-04 20:00 40.80117 -73.95326 2288 ft 232 kts 248°
2026-05-04 20:00 40.79201 -73.97192 2608 ft 255 kts 230°
2026-05-04 20:00 40.78081 -73.99110 3154 ft 270 kts 236°
2026-05-04 20:01 40.77142 -74.01281 3905 ft 275 kts 245°
2026-05-04 20:01 40.76404 -74.03609 4801 ft 272 kts 251°
2026-05-04 20:01 40.75772 -74.05887 5859 ft 264 kts 252°
2026-05-04 20:01 40.75102 -74.08110 6866 ft 259 kts 248°
2026-05-04 20:02 40.74339 -74.10268 7666 ft 261 kts 245°
2026-05-04 20:02 40.73518 -74.12417 8409 ft 263 kts 245°
2026-05-04 20:02 40.72692 -74.14593 9131 ft 266 kts 245°
2026-05-04 20:02 40.71878 -74.16801 9833 ft 269 kts 246°
2026-05-04 20:03 40.71072 -74.19018 10456 ft 275 kts 246°
2026-05-04 20:03 40.70225 -74.21343 10845 ft 289 kts 246°
2026-05-04 20:03 40.69329 -74.23785 11168 ft 304 kts 246°
2026-05-04 20:03 40.68382 -74.26354 11463 ft 318 kts 245°
2026-05-04 20:04 40.67397 -74.29023 11904 ft 326 kts 245°
2026-05-04 20:04 40.66396 -74.31733 12476 ft 330 kts 245°
2026-05-04 20:04 40.65386 -74.34466 13058 ft 333 kts 245°
2026-05-04 20:04 40.64367 -74.37225 13631 ft 336 kts 245°
2026-05-04 20:05 40.63353 -74.39969 14183 ft 338 kts 245°
2026-05-04 20:05 40.62316 -74.42772 14730 ft 341 kts 245°
2026-05-04 20:05 40.61272 -74.45586 15264 ft 344 kts 245°
2026-05-04 20:05 40.60218 -74.48428 15791 ft 347 kts 245°
2026-05-04 20:06 40.59153 -74.51304 16309 ft 349 kts 245°
2026-05-04 20:06 40.58084 -74.54186 16814 ft 352 kts 245°
2026-05-04 20:06 40.57001 -74.57100 17311 ft 355 kts 245°
2026-05-04 20:06 40.55928 -74.59982 17792 ft 357 kts 245°
2026-05-04 20:07 40.54818 -74.62958 18275 ft 360 kts 245°
2026-05-04 20:07 40.53711 -74.65923 18744 ft 362 kts 245°
2026-05-04 20:07 40.52609 -74.68868 19198 ft 365 kts 245°
2026-05-04 20:07 40.51486 -74.71872 19649 ft 367 kts 245°
2026-05-04 20:08 40.50355 -74.74896 20091 ft 370 kts 245°
2026-05-04 20:08 40.49216 -74.77939 20521 ft 372 kts 245°
2026-05-04 20:08 40.48067 -74.81005 20941 ft 375 kts 245°
2026-05-04 20:08 40.46909 -74.84095 21351 ft 377 kts 245°
2026-05-04 20:09 40.45742 -74.87197 21751 ft 379 kts 245°
2026-05-04 20:09 40.44580 -74.90275 22133 ft 382 kts 245°
2026-05-04 20:09 40.43396 -74.93415 22511 ft 384 kts 245°
2026-05-04 20:09 40.42166 -74.96543 22873 ft 387 kts 240°
2026-05-04 20:10 40.40543 -74.99394 23231 ft 392 kts 231°
2026-05-04 20:10 40.38694 -75.02045 23582 ft 395 kts 229°
2026-05-04 20:10 40.36773 -75.04638 23922 ft 397 kts 228°
2026-05-04 20:10 40.34837 -75.07235 24258 ft 399 kts 228°
2026-05-04 20:11 40.32932 -75.09849 24582 ft 401 kts 229°
2026-05-04 20:11 40.31021 -75.12535 24901 ft 403 kts 230°
2026-05-04 20:11 40.29107 -75.15256 25217 ft 405 kts 230°
2026-05-04 20:11 40.27187 -75.17974 25525 ft 407 kts 229°
2026-05-04 20:12 40.25247 -75.20696 25826 ft 409 kts 229°
2026-05-04 20:12 40.23294 -75.23416 26124 ft 411 kts 229°
2026-05-04 20:12 40.21325 -75.26149 26414 ft 413 kts 229°
2026-05-04 20:12 40.19349 -75.28895 26704 ft 415 kts 229°
2026-05-04 20:13 40.17370 -75.31652 26985 ft 417 kts 229°
2026-05-04 20:13 40.15405 -75.34392 27262 ft 419 kts 229°
2026-05-04 20:13 40.13405 -75.37177 27536 ft 421 kts 229°
2026-05-04 20:13 40.11394 -75.39971 27806 ft 422 kts 229°
2026-05-04 20:14 40.09369 -75.42778 28070 ft 424 kts 229°
2026-05-04 20:14 40.07342 -75.45589 28327 ft 426 kts 229°
2026-05-04 20:14 40.05304 -75.48411 28582 ft 428 kts 229°
2026-05-04 20:14 40.03282 -75.51213 28836 ft 430 kts 229°
2026-05-04 20:15 40.01226 -75.54055 29087 ft 431 kts 229°
2026-05-04 20:15 39.99156 -75.56907 29337 ft 433 kts 229°
2026-05-04 20:15 39.97079 -75.59767 29578 ft 435 kts 229°
2026-05-04 20:15 39.94989 -75.62648 29817 ft 436 kts 229°
2026-05-04 20:16 39.92893 -75.65532 30050 ft 438 kts 229°
2026-05-04 20:16 39.90867 -75.68503 30286 ft 438 kts 232°
2026-05-04 20:16 39.88923 -75.71575 30546 ft 439 kts 233°
2026-05-04 20:16 39.87005 -75.74666 30852 ft 438 kts 233°
2026-05-04 20:17 39.85125 -75.77716 31146 ft 438 kts 233°
2026-05-04 20:17 39.83215 -75.80795 31440 ft 437 kts 233°
2026-05-04 20:17 39.81293 -75.83865 31732 ft 437 kts 232°
2026-05-04 20:17 39.79367 -75.86917 32015 ft 436 kts 232°
2026-05-04 20:18 39.77441 -75.89975 32295 ft 435 kts 233°
2026-05-04 20:18 39.75526 -75.93026 32571 ft 435 kts 233°
2026-05-04 20:18 39.73629 -75.96050 32837 ft 434 kts 233°
2026-05-04 20:18 39.71714 -75.99094 33100 ft 434 kts 232°
2026-05-04 20:19 39.69801 -76.02124 33358 ft 433 kts 232°
2026-05-04 20:19 39.67885 -76.05156 33611 ft 433 kts 232°
2026-05-04 20:19 39.65978 -76.08172 33860 ft 432 kts 232°
2026-05-04 20:19 39.64066 -76.11200 34103 ft 432 kts 232°
2026-05-04 20:20 39.62187 -76.14178 34338 ft 431 kts 232°
2026-05-04 20:20 39.60282 -76.17190 34566 ft 431 kts 232°
2026-05-04 20:20 39.58375 -76.20179 34788 ft 431 kts 232°
2026-05-04 20:20 39.56442 -76.23153 35012 ft 430 kts 232°
2026-05-04 20:21 39.54507 -76.26100 35229 ft 430 kts 231°
2026-05-04 20:21 39.52573 -76.29047 35435 ft 429 kts 232°
2026-05-04 20:21 39.48719 -76.34974 35823 ft 428 kts 232°
2026-05-04 20:22 39.46798 -76.37929 35997 ft 429 kts 231°
2026-05-04 20:22 39.44787 -76.40715 36010 ft 429 kts 228°
2026-05-04 20:22 39.40563 -76.46203 36009 ft 429 kts 227°
2026-05-04 20:23 39.36356 -76.51644 36008 ft 429 kts 227°
2026-05-04 20:23 39.32165 -76.57141 36007 ft 429 kts 227°
2026-05-04 20:24 39.27966 -76.62625 36010 ft 429 kts 227°
2026-05-04 20:24 39.23778 -76.68060 36010 ft 429 kts 227°
2026-05-04 20:25 39.19570 -76.73524 36012 ft 429 kts 227°
2026-05-04 20:25 39.15362 -76.78974 36017 ft 429 kts 227°
2026-05-04 20:26 39.11144 -76.84435 36021 ft 429 kts 227°
2026-05-04 20:26 39.06949 -76.89853 36025 ft 429 kts 227°
2026-05-04 20:27 39.02735 -76.95283 36029 ft 429 kts 227°
2026-05-04 20:27 38.98509 -77.00717 36033 ft 429 kts 227°
2026-05-04 20:28 38.94316 -77.06125 36038 ft 429 kts 227°
2026-05-04 20:28 38.90102 -77.11542 36042 ft 429 kts 227°
2026-05-04 20:29 38.85870 -77.16968 36041 ft 429 kts 227°
2026-05-04 20:29 38.81670 -77.22350 36040 ft 429 kts 227°
2026-05-04 20:30 38.77440 -77.27766 36041 ft 429 kts 227°
2026-05-04 20:30 38.73199 -77.33152 36040 ft 429 kts 226°
2026-05-04 20:31 38.68776 -77.38317 36030 ft 430 kts 224°
2026-05-04 20:31 38.64359 -77.43407 36023 ft 430 kts 224°
2026-05-04 20:32 38.59910 -77.48541 36016 ft 430 kts 224°
2026-05-04 20:32 38.55477 -77.53639 36010 ft 430 kts 224°
2026-05-04 20:33 38.51025 -77.58754 36009 ft 430 kts 224°
2026-05-04 20:33 38.46581 -77.63859 36007 ft 430 kts 224°
2026-05-04 20:34 38.42129 -77.68966 36007 ft 430 kts 224°
2026-05-04 20:34 38.37679 -77.74068 36010 ft 430 kts 224°
2026-05-04 20:35 38.33245 -77.79116 36013 ft 430 kts 224°
2026-05-04 20:35 38.28789 -77.84198 36015 ft 430 kts 224°
2026-05-04 20:36 38.24324 -77.89278 36018 ft 430 kts 224°
2026-05-04 20:36 38.19883 -77.94335 36020 ft 430 kts 224°
2026-05-04 20:37 38.15411 -77.99401 36023 ft 430 kts 224°
2026-05-04 20:37 38.10937 -78.04457 36026 ft 430 kts 224°
2026-05-04 20:38 38.06479 -78.09508 36029 ft 430 kts 224°
2026-05-04 20:38 38.02021 -78.14532 36033 ft 430 kts 224°
2026-05-04 20:39 37.97475 -78.19480 36036 ft 430 kts 223°
2026-05-04 20:39 37.92907 -78.24388 36040 ft 430 kts 223°
2026-05-04 20:40 37.88338 -78.29308 36042 ft 430 kts 223°
2026-05-04 20:40 37.83792 -78.34193 36043 ft 430 kts 223°
2026-05-04 20:41 37.79226 -78.39095 36043 ft 430 kts 223°
2026-05-04 20:41 37.74645 -78.43987 36042 ft 430 kts 223°
2026-05-04 20:42 37.70072 -78.48878 36039 ft 430 kts 223°
2026-05-04 20:42 37.65518 -78.53736 36034 ft 430 kts 223°
2026-05-04 20:43 37.60942 -78.58611 36031 ft 430 kts 223°
2026-05-04 20:43 37.56363 -78.63483 36029 ft 430 kts 223°
2026-05-04 20:44 37.52554 -78.67522 36027 ft 430 kts 223°
2026-05-04 20:44 37.47967 -78.72387 36025 ft 430 kts 222°
2026-05-04 20:45 37.43370 -78.77250 36024 ft 430 kts 222°
2026-05-04 20:45 37.38798 -78.82079 36023 ft 430 kts 222°
2026-05-04 20:46 37.34207 -78.86923 36022 ft 430 kts 222°
2026-05-04 20:46 37.29641 -78.91732 36022 ft 430 kts 222°
2026-05-04 20:47 37.25047 -78.96560 36021 ft 430 kts 222°
2026-05-04 20:47 37.20442 -79.01390 36021 ft 430 kts 222°
2026-05-04 20:48 37.15841 -79.06211 36021 ft 430 kts 222°
2026-05-04 20:48 37.11278 -79.11002 36021 ft 430 kts 222°
2026-05-04 20:49 37.06666 -79.15815 36021 ft 431 kts 222°
2026-05-04 20:49 37.02060 -79.20608 36021 ft 431 kts 222°
2026-05-04 20:50 36.97452 -79.25409 36021 ft 430 kts 222°
2026-05-04 20:50 36.92870 -79.30173 36021 ft 431 kts 222°
2026-05-04 20:51 36.88253 -79.34958 36022 ft 430 kts 222°
2026-05-04 20:51 36.83643 -79.39738 36022 ft 431 kts 222°
2026-05-04 20:52 36.79052 -79.44487 36023 ft 431 kts 222°
2026-05-04 20:52 36.74424 -79.49255 36024 ft 431 kts 222°
2026-05-04 20:53 36.69806 -79.54025 36023 ft 430 kts 222°
2026-05-04 20:53 36.67502 -79.56393 35829 ft 427 kts 222°
2026-05-04 20:53 36.65217 -79.58745 35266 ft 426 kts 222°
2026-05-04 20:54 36.62912 -79.61121 34416 ft 432 kts 222°
2026-05-04 20:54 36.60591 -79.63509 33776 ft 431 kts 222°
2026-05-04 20:54 36.58318 -79.65841 33328 ft 426 kts 222°
2026-05-04 20:54 36.56028 -79.68190 32710 ft 425 kts 222°
2026-05-04 20:55 36.53723 -79.70537 31880 ft 430 kts 221°
2026-05-04 20:55 36.51325 -79.72776 31236 ft 430 kts 219°
2026-05-04 20:55 36.48909 -79.74947 30667 ft 427 kts 218°
2026-05-04 20:55 36.46482 -79.77099 29866 ft 429 kts 218°
2026-05-04 20:56 36.44060 -79.79263 29159 ft 429 kts 218°
2026-05-04 20:56 36.41683 -79.81408 28576 ft 425 kts 219°
2026-05-04 20:56 36.39302 -79.83566 28003 ft 421 kts 219°
2026-05-04 20:56 36.36943 -79.85704 27436 ft 418 kts 219°
2026-05-04 20:57 36.34607 -79.87813 26876 ft 414 kts 219°
2026-05-04 20:57 36.32292 -79.89928 26317 ft 410 kts 221°
2026-05-04 20:57 36.30105 -79.92171 25768 ft 405 kts 223°
2026-05-04 20:57 36.28007 -79.94437 25060 ft 406 kts 224°
2026-05-04 20:58 36.25875 -79.96782 24237 ft 409 kts 224°
2026-05-04 20:58 36.23740 -79.99103 23663 ft 406 kts 223°
2026-05-04 20:58 36.21606 -80.01385 22912 ft 406 kts 223°
2026-05-04 20:58 36.19460 -80.03647 21939 ft 412 kts 223°
2026-05-04 20:59 36.17257 -80.05958 21075 ft 414 kts 223°
2026-05-04 20:59 36.15071 -80.08263 20427 ft 410 kts 223°
2026-05-04 20:59 36.12913 -80.10554 19787 ft 406 kts 223°
2026-05-04 20:59 36.10775 -80.12835 19143 ft 402 kts 223°
2026-05-04 21:00 36.08657 -80.15098 18596 ft 404 kts 223°
2026-05-04 21:00 36.06515 -80.17379 18104 ft 407 kts 223°
2026-05-04 21:00 36.04390 -80.19624 17621 ft 407 kts 223°
2026-05-04 21:00 36.02241 -80.21874 17101 ft 404 kts 223°
2026-05-04 21:01 36.00111 -80.24110 16585 ft 400 kts 223°
2026-05-04 21:01 35.98000 -80.26343 16094 ft 398 kts 223°
2026-05-04 21:01 35.95902 -80.28568 15618 ft 395 kts 223°
2026-05-04 21:01 35.93817 -80.30774 15144 ft 392 kts 223°
2026-05-04 21:02 35.91748 -80.32954 14640 ft 389 kts 223°
2026-05-04 21:02 35.89693 -80.35112 14153 ft 387 kts 223°
2026-05-04 21:02 35.87649 -80.37260 13677 ft 384 kts 223°
2026-05-04 21:02 35.85645 -80.39365 13220 ft 382 kts 223°
2026-05-04 21:03 35.83625 -80.41481 13012 ft 381 kts 223°
2026-05-04 21:03 35.81566 -80.43542 12946 ft 380 kts 221°
2026-05-04 21:03 35.79498 -80.45545 12597 ft 374 kts 220°
2026-05-04 21:03 35.77462 -80.47490 12029 ft 368 kts 220°
2026-05-04 21:04 35.75465 -80.49380 11743 ft 354 kts 219°
2026-05-04 21:04 35.73400 -80.50869 11581 ft 342 kts 209°
2026-05-04 21:04 35.71271 -80.52062 11441 ft 328 kts 206°
2026-05-04 21:04 35.69200 -80.53107 11310 ft 316 kts 203°
2026-05-04 21:05 35.67118 -80.53843 11188 ft 306 kts 198°
2026-05-04 21:05 35.65084 -80.54454 11073 ft 295 kts 197°
2026-05-04 21:05 35.63127 -80.55097 10933 ft 289 kts 206°
2026-05-04 21:05 35.61435 -80.56416 10771 ft 289 kts 227°
2026-05-04 21:06 35.60310 -80.58380 10700 ft 275 kts 245°
2026-05-04 21:06 35.59561 -80.60511 10462 ft 269 kts 250°
2026-05-04 21:06 35.58915 -80.62630 10111 ft 268 kts 251°
2026-05-04 21:06 35.58288 -80.64782 9760 ft 267 kts 252°
2026-05-04 21:07 35.57670 -80.66928 9413 ft 265 kts 252°
2026-05-04 21:07 35.57058 -80.69057 9083 ft 264 kts 252°
2026-05-04 21:07 35.56447 -80.71186 8770 ft 263 kts 252°
2026-05-04 21:07 35.55841 -80.73297 8409 ft 261 kts 252°
2026-05-04 21:08 35.55239 -80.75398 8018 ft 260 kts 252°
2026-05-04 21:08 35.54641 -80.77484 7603 ft 258 kts 252°
2026-05-04 21:08 35.54047 -80.79559 7195 ft 257 kts 252°
2026-05-04 21:08 35.53465 -80.81597 6863 ft 256 kts 252°
2026-05-04 21:09 35.52875 -80.83661 6524 ft 255 kts 252°
2026-05-04 21:09 35.52284 -80.85711 6136 ft 256 kts 252°
2026-05-04 21:09 35.51673 -80.87787 5704 ft 259 kts 252°
2026-05-04 21:09 35.51051 -80.89888 5270 ft 263 kts 252°
2026-05-04 21:10 35.50402 -80.91997 4862 ft 266 kts 246°
2026-05-04 21:10 35.49355 -80.93868 4490 ft 267 kts 230°
2026-05-04 21:10 35.48119 -80.95523 4160 ft 266 kts 222°
2026-05-04 21:10 35.46521 -80.96604 3984 ft 262 kts 199°
2026-05-04 21:11 35.44735 -80.97087 3987 ft 259 kts 184°
2026-05-04 21:11 35.42987 -80.97082 3993 ft 244 kts 177°
2026-05-04 21:11 35.41338 -80.96941 3992 ft 230 kts 175°
2026-05-04 21:11 35.39777 -80.96781 3958 ft 221 kts 175°
2026-05-04 21:12 35.38255 -80.96649 3743 ft 218 kts 176°
2026-05-04 21:12 35.36760 -80.96524 3481 ft 218 kts 176°
2026-05-04 21:12 35.35247 -80.96392 3199 ft 218 kts 176°
2026-05-04 21:12 35.33734 -80.96262 2911 ft 217 kts 176°
2026-05-04 21:13 35.32241 -80.96133 2625 ft 209 kts 176°
2026-05-04 21:13 35.30827 -80.96012 2362 ft 198 kts 176°
2026-05-04 21:13 35.29512 -80.95898 2142 ft 184 kts 176°
2026-05-04 21:13 35.28267 -80.95791 1887 ft 173 kts 176°
2026-05-04 21:14 35.27148 -80.95695 1671 ft 155 kts 176°
2026-05-04 21:14 35.26116 -80.95606 1422 ft 143 kts 175°
2026-05-04 21:14 35.25143 -80.95521 1239 ft 139 kts 175°
2026-05-04 21:14 35.24162 -80.95441 1093 ft 142 kts 175°
2026-05-04 21:15 35.23183 -80.95362 888 ft 140 kts 175°
2026-05-04 21:15 35.22232 -80.95275 763 ft 132 kts 176°
2026-05-04 21:15 35.21626 -80.95223 762 ft 42 kts 176°
2026-05-04 21:15 35.21421 -80.95204 762 ft 14 kts 175°
2026-05-04 21:16 35.21327 -80.95177 762 ft 11 kts 151°
2026-05-04 21:16 35.21274 -80.95138 762 ft 8 kts 148°
2026-05-04 21:16 35.21240 -80.95113 762 ft 6 kts 148°
2026-05-04 21:16 35.21202 -80.95083 762 ft 3 kts 148°
2026-05-04 21:17 35.21188 -80.95072 762 ft 4 kts 148°
2026-05-04 21:17 35.21165 -80.95018 762 ft 15 kts 94°
2026-05-04 21:17 35.21198 -80.94901 762 ft 15 kts 25°
2026-05-04 21:18 35.21301 -80.94901 762 ft 16 kts 354°
2026-05-04 21:18 35.21421 -80.94913 762 ft 18 kts 355°
2026-05-04 21:18 35.21547 -80.94923 762 ft 10 kts 356°
2026-05-04 21:18 35.21578 -80.94924 762 ft 4 kts 10°
2026-05-04 21:19 35.21600 -80.94849 762 ft 16 kts 87°
2026-05-04 21:19 35.21629 -80.94710 762 ft 16 kts 43°
2026-05-04 21:19 35.21726 -80.94688 762 ft 13 kts
2026-05-04 21:19 35.21824 -80.94664 762 ft 15 kts 12°
2026-05-04 21:20 35.21877 -80.94744 762 ft 15 kts 268°
2026-05-04 21:20 35.21886 -80.94843 762 ft 9 kts 335°
2026-05-04 21:20 35.21953 -80.94839 762 ft 7 kts 26°
2026-05-04 21:20 35.21969 -80.94829 762 ft 1 kts 24°
2026-05-04 21:21 35.21974 -80.94826 762 ft 0 kts 24°